,,PA_Meas_PMT16A,,PR_Meas_QMR101_102,,RH_Meas_QMH101,,SR_Meas_QMS101,,TA_Meas_QMH101,,GenWind,,GenWind,
time,status,PA,status,PR,status,RH,status,SR,status,TA,status,DirAvg,status,SpdAvg,
2011-07-04, 00:00:05,VALID,918.779,VALID,0,VALID,94.9573,VALID,0,VALID,18.824,VALID,5,VALID,0.473047,
2011-07-04, 00:01:05,VALID,918.808,VALID,0,VALID,94.7896,VALID,0,VALID,18.7683,VALID,5,VALID,0.252344,
2011-07-04, 00:02:05,VALID,918.757,VALID,0,VALID,94.6066,VALID,0,VALID,18.6861,VALID,5,VALID,0.330469,
2011-07-04, 00:03:05,VALID,918.757,VALID,0,VALID,94.8887,VALID,0,VALID,18.7669,VALID,5,VALID,0.729297,
2011-07-04, 00:04:05,VALID,918.737,VALID,0,VALID,95.2698,VALID,0,VALID,18.8268,VALID,5,VALID,0.862109,
2011-07-04, 00:05:05,VALID,918.751,VALID,0,VALID,95.5824,VALID,0,VALID,18.8629,VALID,5,VALID,0.911328,
2011-07-04, 00:06:05,VALID,918.723,VALID,0,VALID,95.7501,VALID,0,VALID,18.9034,VALID,5,VALID,0.783594,
2011-07-04, 00:07:05,VALID,918.737,VALID,0,VALID,95.7577,VALID,0,VALID,18.8824,VALID,5,VALID,0.633203,
2011-07-04, 00:08:05,VALID,918.728,VALID,0,VALID,95.7349,VALID,0,VALID,18.8434,VALID,5,VALID,0.519141,
2011-07-04, 00:09:05,VALID,918.706,VALID,0,VALID,95.5062,VALID,0,VALID,18.7655,VALID,5,VALID,0.575391,
2011-07-04, 00:10:05,VALID,918.707,VALID,0,VALID,95.5976,VALID,0,VALID,18.8059,VALID,5,VALID,0.813672,
2011-07-04, 00:11:05,VALID,918.717,VALID,0,VALID,95.651,VALID,0,VALID,18.7864,VALID,5,VALID,0.863672,
2011-07-04, 00:12:05,VALID,918.711,VALID,0,VALID,95.7806,VALID,0.107441,VALID,18.8059,VALID,5,VALID,0.727344,
2011-07-04, 00:13:05,VALID,918.696,VALID,0,VALID,95.8568,VALID,0,VALID,18.8059,VALID,5,VALID,0.641797,
2011-07-04, 00:14:05,VALID,918.717,VALID,0,VALID,95.8492,VALID,0,VALID,18.7669,VALID,5,VALID,0.763672,
2011-07-04, 00:15:05,VALID,918.671,VALID,0,VALID,95.9102,VALID,0,VALID,18.7864,VALID,5,VALID,0.708984,
2011-07-04, 00:16:05,VALID,918.647,VALID,0,VALID,95.9407,VALID,0,VALID,18.8059,VALID,5,VALID,0.514063,
2011-07-04, 00:17:05,VALID,918.632,VALID,0,VALID,95.9712,VALID,0,VALID,18.7864,VALID,5,VALID,0.424219,
2011-07-04, 00:18:05,VALID,918.598,VALID,0,VALID,96.0855,VALID,0,VALID,18.8045,VALID,5,VALID,0.644531,
2011-07-04, 00:19:05,VALID,918.581,VALID,0,VALID,96.1694,VALID,0,VALID,18.8434,VALID,5,VALID,0.607813,
2011-07-04, 00:20:05,VALID,918.547,VALID,0,VALID,96.2075,VALID,0.107441,VALID,18.8824,VALID,5,VALID,0.839063,
2011-07-04, 00:21:05,VALID,918.566,VALID,0,VALID,96.36,VALID,0,VALID,18.9409,VALID,5,VALID,0.863281,
2011-07-04, 00:22:05,VALID,918.585,VALID,0,VALID,96.3219,VALID,0,VALID,18.9409,VALID,5,VALID,0.237109,
2011-07-04, 00:23:05,VALID,918.555,VALID,0,VALID,96.2609,VALID,0,VALID,18.9019,VALID,5,VALID,0.472656,
2011-07-04, 00:24:05,VALID,918.545,VALID,0,VALID,96.1084,VALID,0,VALID,18.8045,VALID,5,VALID,0.509375,
2011-07-04, 00:25:05,VALID,918.531,VALID,0,VALID,96.0169,VALID,0,VALID,18.7474,VALID,5,VALID,0.572656,
2011-07-04, 00:26:05,VALID,918.514,VALID,0,VALID,96.0703,VALID,0,VALID,18.746,VALID,5,VALID,0.323047,
2011-07-04, 00:27:05,VALID,918.55,VALID,0,VALID,96.1313,VALID,0,VALID,18.7655,VALID,5,VALID,0.391016,
2011-07-04, 00:28:05,VALID,918.505,VALID,0,VALID,96.177,VALID,0,VALID,18.785,VALID,5,VALID,0.514453,
2011-07-04, 00:29:05,VALID,918.581,VALID,0,VALID,96.1541,VALID,0.107441,VALID,18.785,VALID,5,VALID,0.413281,
2011-07-04, 00:30:05,VALID,918.52,VALID,0,VALID,96.1846,VALID,0,VALID,18.7864,VALID,5,VALID,0.596094,
2011-07-04, 00:31:05,VALID,918.506,VALID,0,VALID,96.1846,VALID,0,VALID,18.7864,VALID,5,VALID,0.880078,
2011-07-04, 00:32:05,VALID,918.447,VALID,0,VALID,96.1923,VALID,0.107441,VALID,18.7655,VALID,5,VALID,0.676172,
2011-07-04, 00:33:05,VALID,918.474,VALID,0,VALID,96.1694,VALID,0.107441,VALID,18.746,VALID,5,VALID,0.533984,
2011-07-04, 00:34:05,VALID,918.499,VALID,0,VALID,96.0779,VALID,0,VALID,18.6875,VALID,5,VALID,0.498828,
2011-07-04, 00:35:05,VALID,918.491,VALID,0,VALID,96.0322,VALID,0.107441,VALID,18.6485,VALID,5,VALID,0.476172,
2011-07-04, 00:36:05,VALID,918.493,VALID,0,VALID,96.0322,VALID,0,VALID,18.6304,VALID,5,VALID,0.754687,
2011-07-04, 00:37:05,VALID,918.487,VALID,0,VALID,96.0017,VALID,0,VALID,18.5511,VALID,5,VALID,0.960938,
2011-07-04, 00:38:05,VALID,918.492,VALID,0,VALID,95.9941,VALID,0,VALID,18.533,VALID,5,VALID,0.804297,
2011-07-04, 00:39:05,VALID,918.519,VALID,0,VALID,96.0627,VALID,0,VALID,18.494,VALID,5,VALID,0.85625,
2011-07-04, 00:40:05,VALID,918.484,VALID,0,VALID,96.0855,VALID,0.107441,VALID,18.455,VALID,5,VALID,0.722266,
2011-07-04, 00:41:05,VALID,918.465,VALID,0,VALID,96.1923,VALID,0,VALID,18.455,VALID,5,VALID,0.865625,
2011-07-04, 00:42:05,VALID,918.434,VALID,0,VALID,96.2228,VALID,0,VALID,18.4146,VALID,5,VALID,0.669141,
2011-07-04, 00:43:05,VALID,918.414,VALID,0,VALID,96.2761,VALID,0,VALID,18.455,VALID,5,VALID,0.78125,
2011-07-04, 00:44:05,VALID,918.426,VALID,0,VALID,96.3981,VALID,0,VALID,18.4745,VALID,5,VALID,0.542969,
2011-07-04, 00:45:05,VALID,918.42,VALID,0,VALID,96.421,VALID,0,VALID,18.455,VALID,5,VALID,0.538672,
2011-07-04, 00:46:05,VALID,918.429,VALID,0,VALID,96.4743,VALID,0,VALID,18.494,VALID,5,VALID,0.7875,
2011-07-04, 00:47:05,VALID,918.422,VALID,0,VALID,96.5429,VALID,0,VALID,18.533,VALID,6,VALID,0.8875,
2011-07-04, 00:48:05,VALID,918.395,VALID,0,VALID,96.5734,VALID,0,VALID,18.5525,VALID,6,VALID,0.595312,
2011-07-04, 00:49:05,VALID,918.402,VALID,0,VALID,96.6192,VALID,0,VALID,18.572,VALID,6,VALID,0.735937,
2011-07-04, 00:50:05,VALID,918.422,VALID,0,VALID,96.6802,VALID,0,VALID,18.6304,VALID,6,VALID,0.875781,
2011-07-04, 00:51:05,VALID,918.424,VALID,0,VALID,96.7411,VALID,0,VALID,18.6889,VALID,6,VALID,0.655469,
2011-07-04, 00:52:05,VALID,918.432,VALID,0,VALID,96.7259,VALID,0,VALID,18.707,VALID,6,VALID,0.710547,
2011-07-04, 00:53:05,VALID,918.427,VALID,0,VALID,96.7183,VALID,0,VALID,18.7279,VALID,6,VALID,0.569922,
2011-07-04, 00:54:05,VALID,918.413,VALID,0,VALID,96.7183,VALID,0,VALID,18.7279,VALID,7,VALID,0.796875,
2011-07-04, 00:55:05,VALID,918.414,VALID,0,VALID,96.7411,VALID,0,VALID,18.7488,VALID,7,VALID,1.08672,
2011-07-04, 00:56:05,VALID,918.397,VALID,0,VALID,96.7411,VALID,0,VALID,18.7265,VALID,7,VALID,0.635547,
2011-07-04, 00:57:05,VALID,918.398,VALID,0,VALID,96.6954,VALID,0,VALID,18.7279,VALID,121,VALID,0.988281,
2011-07-04, 00:58:05,VALID,918.401,VALID,0,VALID,96.6725,VALID,0,VALID,18.7084,VALID,120,VALID,0.984375,
2011-07-04, 00:59:05,VALID,918.371,VALID,0,VALID,96.6954,VALID,0,VALID,18.6875,VALID,120,VALID,1.20859,
2011-07-04, 01:00:05,VALID,918.371,VALID,0,VALID,96.6954,VALID,0,VALID,18.6875,VALID,120,VALID,0.583984,
2011-07-04, 01:01:05,VALID,918.351,VALID,0,VALID,96.6878,VALID,0,VALID,18.7279,VALID,120,VALID,0.704687,
2011-07-04, 01:02:05,VALID,918.338,VALID,0,VALID,96.6802,VALID,0,VALID,18.7474,VALID,120,VALID,0.560156,
2011-07-04, 01:03:05,VALID,918.375,VALID,0,VALID,96.6649,VALID,0.107441,VALID,18.7265,VALID,120,VALID,0.565234,
2011-07-04, 01:04:05,VALID,918.388,VALID,0,VALID,96.6725,VALID,0,VALID,18.707,VALID,120,VALID,0.492578,
2011-07-04, 01:05:05,VALID,918.341,VALID,0,VALID,96.6573,VALID,0,VALID,18.7265,VALID,120,VALID,0.334766,
2011-07-04, 01:06:05,VALID,918.342,VALID,0,VALID,96.6268,VALID,0,VALID,18.7474,VALID,120,VALID,0.457812,
2011-07-04, 01:07:05,VALID,918.351,VALID,0,VALID,96.5582,VALID,0,VALID,18.6889,VALID,120,VALID,0.452344,
2011-07-04, 01:08:05,VALID,918.322,VALID,0,VALID,96.4972,VALID,0,VALID,18.6694,VALID,120,VALID,0.645312,
2011-07-04, 01:09:05,VALID,918.341,VALID,0,VALID,96.5048,VALID,0,VALID,18.6694,VALID,120,VALID,0.721484,
2011-07-04, 01:10:05,VALID,918.355,VALID,0,VALID,96.4896,VALID,0,VALID,18.6485,VALID,120,VALID,0.742578,
2011-07-04, 01:11:05,VALID,918.346,VALID,0,VALID,96.4591,VALID,0,VALID,18.629,VALID,120,VALID,0.914453,
2011-07-04, 01:12:05,VALID,918.354,VALID,0,VALID,96.3905,VALID,0,VALID,18.6095,VALID,120,VALID,0.880469,
2011-07-04, 01:13:05,VALID,918.346,VALID,0,VALID,96.3219,VALID,0,VALID,18.6109,VALID,120,VALID,0.997656,
2011-07-04, 01:14:05,VALID,918.363,VALID,0,VALID,96.2761,VALID,0,VALID,18.5914,VALID,120,VALID,0.607422,
2011-07-04, 01:15:05,VALID,918.33,VALID,0,VALID,96.1923,VALID,0,VALID,18.572,VALID,120,VALID,0.611719,
2011-07-04, 01:16:05,VALID,918.256,VALID,0,VALID,96.1008,VALID,0,VALID,18.5525,VALID,120,VALID,0.720703,
2011-07-04, 01:17:05,VALID,918.247,VALID,0,VALID,96.055,VALID,0,VALID,18.533,VALID,120,VALID,0.876562,
2011-07-04, 01:18:05,VALID,918.264,VALID,0,VALID,96.0093,VALID,0,VALID,18.5121,VALID,120,VALID,0.620313,
2011-07-04, 01:19:05,VALID,918.24,VALID,0,VALID,95.9712,VALID,0,VALID,18.533,VALID,120,VALID,0.646094,
2011-07-04, 01:20:05,VALID,918.264,VALID,0,VALID,95.9712,VALID,0,VALID,18.5135,VALID,120,VALID,0.482422,
2011-07-04, 01:21:05,VALID,918.247,VALID,0,VALID,95.8873,VALID,0,VALID,18.4745,VALID,120,VALID,0.604688,
2011-07-04, 01:22:05,VALID,918.257,VALID,0,VALID,95.8263,VALID,0,VALID,18.455,VALID,120,VALID,0.890234,
2011-07-04, 01:23:05,VALID,918.219,VALID,0,VALID,95.7654,VALID,0,VALID,18.416,VALID,120,VALID,0.775,
2011-07-04, 01:24:05,VALID,918.203,VALID,0,VALID,95.6891,VALID,0,VALID,18.3575,VALID,120,VALID,0.566797,
2011-07-04, 01:25:05,VALID,918.167,VALID,0,VALID,95.6967,VALID,0,VALID,18.3185,VALID,120,VALID,0.789063,
2011-07-04, 01:26:05,VALID,918.133,VALID,0,VALID,95.7272,VALID,0,VALID,18.2977,VALID,120,VALID,0.421484,
2011-07-04, 01:27:05,VALID,918.12,VALID,0,VALID,95.7654,VALID,0,VALID,18.299,VALID,120,VALID,0.626953,
2011-07-04, 01:28:05,VALID,918.16,VALID,0,VALID,95.773,VALID,0,VALID,18.2796,VALID,120,VALID,0.446484,
2011-07-04, 01:29:05,VALID,918.187,VALID,0,VALID,95.8035,VALID,0,VALID,18.3394,VALID,120,VALID,0.740234,
2011-07-04, 01:30:05,VALID,918.183,VALID,0,VALID,95.8873,VALID,0,VALID,18.338,VALID,120,VALID,0.523438,
2011-07-04, 01:31:05,VALID,918.205,VALID,0,VALID,95.8568,VALID,0,VALID,18.338,VALID,120,VALID,0.514844,
2011-07-04, 01:32:05,VALID,918.214,VALID,0,VALID,95.834,VALID,0,VALID,18.3172,VALID,120,VALID,0.285156,
2011-07-04, 01:33:05,VALID,918.156,VALID,0,VALID,95.7882,VALID,0,VALID,18.338,VALID,120,VALID,0.09375,
2011-07-04, 01:34:05,VALID,918.12,VALID,0,VALID,95.6739,VALID,0,VALID,18.299,VALID,120,VALID,0.808203,
2011-07-04, 01:35:05,VALID,918.061,VALID,0,VALID,95.5976,VALID,0,VALID,18.299,VALID,120,VALID,0.795313,
2011-07-04, 01:36:05,VALID,918.043,VALID,0,VALID,95.5748,VALID,0,VALID,18.3394,VALID,120,VALID,0.898047,
2011-07-04, 01:37:05,VALID,918.019,VALID,0,VALID,95.5671,VALID,0,VALID,18.3185,VALID,120,VALID,0.716797,
2011-07-04, 01:38:05,VALID,918.027,VALID,0,VALID,95.6662,VALID,0,VALID,18.3561,VALID,120,VALID,0.608984,
2011-07-04, 01:39:05,VALID,918.024,VALID,0,VALID,95.6281,VALID,0,VALID,18.3575,VALID,120,VALID,0.0363281,
2011-07-04, 01:40:05,VALID,918.003,VALID,0,VALID,95.5367,VALID,0,VALID,18.3172,VALID,120,VALID,0.247266,
2011-07-04, 01:41:05,VALID,918.013,VALID,0,VALID,95.4299,VALID,0,VALID,18.3185,VALID,120,VALID,0.239453,
2011-07-04, 01:42:05,VALID,918.011,VALID,0,VALID,95.3537,VALID,0,VALID,18.2782,VALID,120,VALID,0.464844,
2011-07-04, 01:43:05,VALID,917.989,VALID,0,VALID,95.3308,VALID,0,VALID,18.299,VALID,120,VALID,0.303125,
2011-07-04, 01:44:05,VALID,917.965,VALID,0,VALID,95.2775,VALID,0,VALID,18.2406,VALID,120,VALID,0.251563,
2011-07-04, 01:45:05,VALID,917.993,VALID,0,VALID,95.125,VALID,0,VALID,18.2016,VALID,120,VALID,0.166016,
2011-07-04, 01:46:05,VALID,917.986,VALID,0,VALID,95.1936,VALID,0.107441,VALID,18.1821,VALID,120,VALID,0.253125,
2011-07-04, 01:47:05,VALID,917.953,VALID,0,VALID,95.2851,VALID,0,VALID,18.1417,VALID,120,VALID,0.389062,
2011-07-04, 01:48:05,VALID,917.964,VALID,0,VALID,95.3384,VALID,0,VALID,18.1431,VALID,120,VALID,0.242969,
2011-07-04, 01:49:05,VALID,917.942,VALID,0,VALID,95.468,VALID,0,VALID,18.1431,VALID,120,VALID,0.610937,
2011-07-04, 01:50:05,VALID,917.92,VALID,0,VALID,95.4909,VALID,0,VALID,18.1236,VALID,120,VALID,0.851953,
2011-07-04, 01:51:05,VALID,917.883,VALID,0,VALID,95.4071,VALID,0,VALID,18.0651,VALID,120,VALID,0.872266,
2011-07-04, 01:52:05,VALID,917.885,VALID,0,VALID,95.5214,VALID,0,VALID,18.0679,VALID,120,VALID,0.787109,
2011-07-04, 01:53:05,VALID,917.893,VALID,0,VALID,95.6053,VALID,0,VALID,18.008,VALID,120,VALID,0.425,
2011-07-04, 01:54:05,VALID,917.892,VALID,0,VALID,95.6891,VALID,0,VALID,18.008,VALID,120,VALID,0.594531,
2011-07-04, 01:55:05,VALID,917.891,VALID,0,VALID,95.8645,VALID,0,VALID,18.0275,VALID,120,VALID,0.608984,
2011-07-04, 01:56:05,VALID,917.901,VALID,0,VALID,96.0169,VALID,0,VALID,18.047,VALID,120,VALID,0.827734,
2011-07-04, 01:57:05,VALID,917.902,VALID,0,VALID,95.9941,VALID,0,VALID,18.0484,VALID,120,VALID,0.942578,
2011-07-04, 01:58:05,VALID,917.867,VALID,0,VALID,96.0932,VALID,0,VALID,18.0275,VALID,120,VALID,1.17461,
2011-07-04, 01:59:05,VALID,917.891,VALID,0,VALID,96.0932,VALID,0,VALID,18.008,VALID,120,VALID,0.973828,
2011-07-04, 02:00:05,VALID,917.896,VALID,0,VALID,96.0703,VALID,0,VALID,18.008,VALID,120,VALID,0.541406,
2011-07-04, 02:01:05,VALID,917.853,VALID,0,VALID,95.9559,VALID,0,VALID,17.9496,VALID,120,VALID,0.411328,
2011-07-04, 02:02:05,VALID,917.876,VALID,0,VALID,95.8645,VALID,0,VALID,17.8911,VALID,120,VALID,0.791016,
2011-07-04, 02:03:05,VALID,917.861,VALID,0,VALID,95.834,VALID,0,VALID,17.8716,VALID,120,VALID,0.848828,
2011-07-04, 02:04:05,VALID,917.872,VALID,0,VALID,95.8568,VALID,0,VALID,17.8326,VALID,119,VALID,0.785156,
2011-07-04, 02:05:05,VALID,917.862,VALID,0,VALID,95.895,VALID,0,VALID,17.7936,VALID,119,VALID,1.22031,
2011-07-04, 02:06:05,VALID,917.866,VALID,0,VALID,95.7806,VALID,0,VALID,17.7157,VALID,102,VALID,0.699609,
2011-07-04, 02:07:05,VALID,917.866,VALID,0,VALID,95.9331,VALID,0,VALID,17.7143,VALID,121,VALID,0.924609,
2011-07-04, 02:08:05,VALID,917.84,VALID,0,VALID,96.0703,VALID,0,VALID,17.7338,VALID,120,VALID,1.01211,
2011-07-04, 02:09:05,VALID,917.82,VALID,0,VALID,96.1923,VALID,0,VALID,17.7338,VALID,127,VALID,1.38555,
2011-07-04, 02:10:05,VALID,917.8,VALID,0,VALID,96.2228,VALID,0.107441,VALID,17.7338,VALID,126,VALID,1.00742,
2011-07-04, 02:11:05,VALID,917.788,VALID,0,VALID,96.2304,VALID,0.107441,VALID,17.713,VALID,135,VALID,1.2625,
2011-07-04, 02:12:05,VALID,917.765,VALID,0,VALID,96.2761,VALID,0,VALID,17.7533,VALID,142,VALID,1.08125,
2011-07-04, 02:13:05,VALID,917.744,VALID,0,VALID,96.2685,VALID,0,VALID,17.7533,VALID,122,VALID,1.31016,
2011-07-04, 02:14:05,VALID,917.768,VALID,0,VALID,96.238,VALID,0.107441,VALID,17.7338,VALID,131,VALID,1.40586,
2011-07-04, 02:15:05,VALID,917.775,VALID,0,VALID,96.2151,VALID,0,VALID,17.7338,VALID,136,VALID,1.27266,
2011-07-04, 02:16:05,VALID,917.772,VALID,0,VALID,96.1694,VALID,0,VALID,17.7338,VALID,128,VALID,1.20859,
2011-07-04, 02:17:05,VALID,917.718,VALID,0,VALID,96.1389,VALID,0.107441,VALID,17.7143,VALID,128,VALID,1.27461,
2011-07-04, 02:18:05,VALID,917.736,VALID,0,VALID,96.1313,VALID,0,VALID,17.7143,VALID,128,VALID,1.17773,
2011-07-04, 02:19:05,VALID,917.69,VALID,0,VALID,96.1084,VALID,0,VALID,17.6948,VALID,128,VALID,1.37695,
2011-07-04, 02:20:05,VALID,917.678,VALID,0,VALID,96.1465,VALID,0,VALID,17.6948,VALID,128,VALID,1.22422,
2011-07-04, 02:21:05,VALID,917.647,VALID,0,VALID,96.0932,VALID,0,VALID,17.674,VALID,128,VALID,1.05938,
2011-07-04, 02:22:05,VALID,917.676,VALID,0,VALID,96.1999,VALID,0,VALID,17.7338,VALID,130,VALID,1.16445,
2011-07-04, 02:23:05,VALID,917.656,VALID,0,VALID,96.116,VALID,0,VALID,17.7143,VALID,128,VALID,1.03398,
2011-07-04, 02:24:05,VALID,917.646,VALID,0,VALID,96.0474,VALID,0,VALID,17.7338,VALID,128,VALID,1.05117,
2011-07-04, 02:25:04,VALID,917.645,VALID,0,VALID,96.0093,VALID,0,VALID,17.7325,VALID,128,VALID,0.907812,
2011-07-04, 02:26:04,VALID,917.634,VALID,0,VALID,96.0398,VALID,0,VALID,17.8313,VALID,150,VALID,1.13594,
2011-07-04, 02:27:04,VALID,917.586,VALID,0,VALID,95.8263,VALID,0,VALID,17.8508,VALID,116,VALID,1.33906,
2011-07-04, 02:28:04,VALID,917.596,VALID,0,VALID,95.6434,VALID,0,VALID,17.8702,VALID,116,VALID,1.30469,
2011-07-04, 02:29:04,VALID,917.571,VALID,0,VALID,95.3994,VALID,0,VALID,17.8508,VALID,116,VALID,1.07578,
2011-07-04, 02:30:04,VALID,917.567,VALID,0,VALID,95.2775,VALID,0,VALID,17.8702,VALID,121,VALID,1.42227,
2011-07-04, 02:31:04,VALID,917.532,VALID,0,VALID,95.125,VALID,0.107441,VALID,17.8702,VALID,135,VALID,0.964844,
2011-07-04, 02:32:04,VALID,917.558,VALID,0,VALID,94.9039,VALID,0.107441,VALID,17.8702,VALID,125,VALID,0.863672,
2011-07-04, 02:33:04,VALID,917.609,VALID,0,VALID,94.6447,VALID,0.107441,VALID,17.8508,VALID,127,VALID,0.726953,
2011-07-04, 02:34:04,VALID,917.584,VALID,0,VALID,94.5837,VALID,0,VALID,17.8313,VALID,127,VALID,0.744922,
2011-07-04, 02:35:04,VALID,917.584,VALID,0,VALID,94.5685,VALID,0,VALID,17.8313,VALID,127,VALID,0.711328,
2011-07-04, 02:36:04,VALID,917.58,VALID,0,VALID,94.6218,VALID,0,VALID,17.8313,VALID,127,VALID,0.749219,
2011-07-04, 02:37:04,VALID,917.57,VALID,0,VALID,94.7286,VALID,0.107441,VALID,17.8702,VALID,149,VALID,0.914453,
2011-07-04, 02:38:04,VALID,917.571,VALID,0,VALID,94.6447,VALID,0,VALID,17.8508,VALID,149,VALID,0.868359,
2011-07-04, 02:39:04,VALID,917.587,VALID,0,VALID,94.5075,VALID,0,VALID,17.8326,VALID,149,VALID,0.739844,
2011-07-04, 02:40:04,VALID,917.579,VALID,0,VALID,94.4313,VALID,0,VALID,17.8118,VALID,159,VALID,0.811328,
2011-07-04, 02:41:04,VALID,917.568,VALID,0,VALID,94.4617,VALID,0,VALID,17.7923,VALID,159,VALID,0.865234,
2011-07-04, 02:42:04,VALID,917.563,VALID,0,VALID,94.4694,VALID,0,VALID,17.7728,VALID,159,VALID,0.320313,
2011-07-04, 02:43:04,VALID,917.527,VALID,0,VALID,94.5532,VALID,0.107441,VALID,17.7533,VALID,159,VALID,0.769141,
2011-07-04, 02:44:04,VALID,917.562,VALID,0,VALID,94.7514,VALID,0,VALID,17.7728,VALID,159,VALID,1.16016,
2011-07-04, 02:45:04,VALID,917.55,VALID,0,VALID,94.8429,VALID,0,VALID,17.7533,VALID,159,VALID,0.834766,
2011-07-04, 02:46:04,VALID,917.507,VALID,0,VALID,94.8658,VALID,0,VALID,17.6948,VALID,155,VALID,0.898047,
2011-07-04, 02:47:04,VALID,917.505,VALID,0,VALID,94.8734,VALID,0,VALID,17.6948,VALID,152,VALID,1.06211,
2011-07-04, 02:48:04,VALID,917.481,VALID,0,VALID,94.9344,VALID,0,VALID,17.6559,VALID,148,VALID,0.843359,
2011-07-04, 02:49:04,VALID,917.51,VALID,0,VALID,94.8505,VALID,0,VALID,17.6169,VALID,139,VALID,0.853516,
2011-07-04, 02:50:04,VALID,917.484,VALID,0,VALID,95.0716,VALID,0,VALID,17.6169,VALID,139,VALID,0.894141,
2011-07-04, 02:51:04,VALID,917.472,VALID,0,VALID,95.1174,VALID,0,VALID,17.5974,VALID,139,VALID,0.566797,
2011-07-04, 02:52:04,VALID,917.483,VALID,0,VALID,95.1479,VALID,0,VALID,17.5779,VALID,132,VALID,1.18867,
2011-07-04, 02:53:04,VALID,917.465,VALID,0,VALID,95.2927,VALID,0,VALID,17.5779,VALID,126,VALID,0.747656,
2011-07-04, 02:54:04,VALID,917.467,VALID,0,VALID,95.3156,VALID,0,VALID,17.5584,VALID,126,VALID,0.829297,
2011-07-04, 02:55:04,VALID,917.469,VALID,0,VALID,95.3003,VALID,0,VALID,17.5779,VALID,126,VALID,0.735156,
2011-07-04, 02:56:04,VALID,917.45,VALID,0,VALID,95.3003,VALID,0.107441,VALID,17.5766,VALID,135,VALID,0.878125,
2011-07-04, 02:57:04,VALID,917.455,VALID,0,VALID,95.1555,VALID,0.107441,VALID,17.5974,VALID,135,VALID,0.715625,
2011-07-04, 02:58:04,VALID,917.411,VALID,0,VALID,95.0488,VALID,0.107441,VALID,17.5974,VALID,135,VALID,1.02656,
2011-07-04, 02:59:04,VALID,917.441,VALID,0,VALID,94.942,VALID,0.107441,VALID,17.5779,VALID,135,VALID,0.837891,
2011-07-04, 03:00:04,VALID,917.443,VALID,0,VALID,94.8582,VALID,0,VALID,17.5779,VALID,135,VALID,0.796484,
2011-07-04, 03:01:04,VALID,917.428,VALID,0,VALID,94.7591,VALID,0,VALID,17.5974,VALID,154,VALID,0.903125,
2011-07-04, 03:02:04,VALID,917.419,VALID,0,VALID,94.6523,VALID,0,VALID,17.5779,VALID,157,VALID,0.848437,
2011-07-04, 03:03:04,VALID,917.435,VALID,0,VALID,94.5913,VALID,0,VALID,17.5779,VALID,153,VALID,0.980859,
2011-07-04, 03:04:04,VALID,917.419,VALID,0,VALID,94.538,VALID,0,VALID,17.5974,VALID,153,VALID,0.857813,
2011-07-04, 03:05:04,VALID,917.415,VALID,0,VALID,94.6142,VALID,0,VALID,17.5779,VALID,153,VALID,0.956641,
2011-07-04, 03:06:04,VALID,917.421,VALID,0,VALID,94.599,VALID,0,VALID,17.5974,VALID,153,VALID,0.831641,
2011-07-04, 03:07:04,VALID,917.409,VALID,0,VALID,94.5685,VALID,0,VALID,17.5792,VALID,153,VALID,0.881641,
2011-07-04, 03:08:04,VALID,917.399,VALID,0,VALID,94.6981,VALID,0,VALID,17.5584,VALID,153,VALID,1.16523,
2011-07-04, 03:09:04,VALID,917.408,VALID,0,VALID,94.7514,VALID,0,VALID,17.5194,VALID,153,VALID,0.673047,
2011-07-04, 03:10:04,VALID,917.373,VALID,0,VALID,94.7667,VALID,0,VALID,17.5194,VALID,141,VALID,0.821875,
2011-07-04, 03:11:04,VALID,917.368,VALID,0,VALID,94.6981,VALID,0,VALID,17.5,VALID,141,VALID,0.901953,
2011-07-04, 03:12:04,VALID,917.368,VALID,0,VALID,94.7667,VALID,0,VALID,17.5,VALID,117,VALID,0.938281,
2011-07-04, 03:13:04,VALID,917.379,VALID,0,VALID,94.9115,VALID,0,VALID,17.5403,VALID,131,VALID,1.025,
2011-07-04, 03:14:04,VALID,917.336,VALID,0,VALID,94.8048,VALID,0,VALID,17.5208,VALID,131,VALID,0.953516,
2011-07-04, 03:15:04,VALID,917.363,VALID,0,VALID,94.8658,VALID,0,VALID,17.4805,VALID,131,VALID,1.1168,
2011-07-04, 03:16:04,VALID,917.352,VALID,0,VALID,95.0106,VALID,0,VALID,17.4818,VALID,131,VALID,0.955469,
2011-07-04, 03:17:04,VALID,917.335,VALID,0,VALID,95.1402,VALID,0,VALID,17.4805,VALID,133,VALID,1.47227,
2011-07-04, 03:18:04,VALID,917.347,VALID,0,VALID,95.1555,VALID,0.107441,VALID,17.4805,VALID,125,VALID,1.2207,
2011-07-04, 03:19:04,VALID,917.344,VALID,0,VALID,95.0259,VALID,0,VALID,17.4818,VALID,125,VALID,0.863281,
2011-07-04, 03:20:04,VALID,917.367,VALID,0,VALID,95.0411,VALID,0,VALID,17.4623,VALID,125,VALID,1.18789,
2011-07-04, 03:21:04,VALID,917.331,VALID,0,VALID,94.9878,VALID,0,VALID,17.4428,VALID,125,VALID,0.839844,
2011-07-04, 03:22:04,VALID,917.346,VALID,0,VALID,94.9649,VALID,0,VALID,17.4025,VALID,126,VALID,0.763672,
2011-07-04, 03:23:04,VALID,917.322,VALID,0,VALID,95.0411,VALID,0,VALID,17.3635,VALID,139,VALID,0.826172,
2011-07-04, 03:24:04,VALID,917.286,VALID,0,VALID,94.9801,VALID,0,VALID,17.3635,VALID,139,VALID,0.780469,
2011-07-04, 03:25:04,VALID,917.275,VALID,0,VALID,94.9573,VALID,0,VALID,17.3259,VALID,139,VALID,0.823047,
2011-07-04, 03:26:04,VALID,917.256,VALID,0,VALID,95.0716,VALID,0,VALID,17.3454,VALID,138,VALID,1.01172,
2011-07-04, 03:27:04,VALID,917.237,VALID,0,VALID,95.1097,VALID,0,VALID,17.3259,VALID,138,VALID,1.16016,
2011-07-04, 03:28:04,VALID,917.212,VALID,0,VALID,94.9878,VALID,0,VALID,17.3259,VALID,138,VALID,0.867188,
2011-07-04, 03:29:04,VALID,917.25,VALID,0,VALID,94.881,VALID,0.107441,VALID,17.3051,VALID,138,VALID,0.997266,
2011-07-04, 03:30:04,VALID,917.245,VALID,0,VALID,94.8277,VALID,0,VALID,17.2856,VALID,138,VALID,1.14922,
2011-07-04, 03:31:04,VALID,917.227,VALID,0,VALID,94.7591,VALID,0,VALID,17.2661,VALID,138,VALID,0.828125,
2011-07-04, 03:32:04,VALID,917.246,VALID,0,VALID,94.8048,VALID,0.107441,VALID,17.3064,VALID,138,VALID,0.831641,
2011-07-04, 03:33:04,VALID,917.231,VALID,0,VALID,94.7896,VALID,0,VALID,17.2856,VALID,138,VALID,1.17109,
2011-07-04, 03:34:04,VALID,917.237,VALID,0,VALID,94.8505,VALID,0.107441,VALID,17.3051,VALID,138,VALID,1.02734,
2011-07-04, 03:35:04,VALID,917.256,VALID,0,VALID,94.8429,VALID,0,VALID,17.3051,VALID,138,VALID,0.945313,
2011-07-04, 03:36:04,VALID,917.258,VALID,0,VALID,94.8277,VALID,0,VALID,17.2856,VALID,138,VALID,0.999609,
2011-07-04, 03:37:04,VALID,917.231,VALID,0,VALID,94.7896,VALID,0,VALID,17.3064,VALID,138,VALID,0.504687,
2011-07-04, 03:38:04,VALID,917.212,VALID,0,VALID,94.6371,VALID,0,VALID,17.3064,VALID,138,VALID,1.23398,
2011-07-04, 03:39:04,VALID,917.23,VALID,0,VALID,94.4694,VALID,0.107441,VALID,17.2661,VALID,137,VALID,1.12734,
2011-07-04, 03:40:04,VALID,917.226,VALID,0,VALID,94.355,VALID,0,VALID,17.2661,VALID,137,VALID,0.700781,
2011-07-04, 03:41:04,VALID,917.244,VALID,0,VALID,94.2178,VALID,0,VALID,17.2466,VALID,137,VALID,0.84375,
2011-07-04, 03:42:04,VALID,917.266,VALID,0,VALID,94.1873,VALID,0,VALID,17.2479,VALID,137,VALID,1.01719,
2011-07-04, 03:43:04,VALID,917.245,VALID,0,VALID,94.1721,VALID,0,VALID,17.2077,VALID,137,VALID,0.419531,
2011-07-04, 03:44:04,VALID,917.241,VALID,0,VALID,94.2026,VALID,0,VALID,17.2285,VALID,137,VALID,1.04961,